owner,sensor,date,latitude,longitude,relative_humidity,qcFlag 
COMPS,ioos:station:USF.COMPS:ARP:1,2016-03-01T00:00:00Z,28.4330,-82.6670,74.2,1111122 
COMPS,ioos:station:USF.COMPS:ARP:1,2016-03-01T00:06:00Z,28.4330,-82.6670,75.15,1111122 
COMPS,ioos:station:USF.COMPS:ARP:1,2016-03-01T00:12:00Z,28.4330,-82.6670,75.15,1111122 
COMPS,ioos:station:USF.COMPS:ARP:1,2016-03-01T00:18:00Z,28.4330,-82.6670,76.23,1111122 
COMPS,ioos:station:USF.COMPS:ARP:1,2016-03-01T00:24:00Z,28.4330,-82.6670,77.3,1111122 
COMPS,ioos:station:USF.COMPS:ARP:1,2016-03-01T00:30:00Z,28.4330,-82.6670,77.71,1111122 
COMPS,ioos:station:USF.COMPS:ARP:1,2016-03-01T00:36:00Z,28.4330,-82.6670,79.56,1111122 
COMPS,ioos:station:USF.COMPS:ARP:1,2016-03-01T00:42:00Z,28.4330,-82.6670,81.35,1111122 
COMPS,ioos:station:USF.COMPS:ARP:1,2016-03-01T00:48:00Z,28.4330,-82.6670,82.69,1111122 
COMPS,ioos:station:USF.COMPS:ARP:1,2016-03-01T00:54:00Z,28.4330,-82.6670,83.85,1111122 
COMPS,ioos:station:USF.COMPS:ARP:1,2016-03-01T01:00:00Z,28.4330,-82.6670,85.21,1111122 
COMPS,ioos:station:USF.COMPS:ARP:1,2016-03-01T01:06:00Z,28.4330,-82.6670,86.78,1111122 
COMPS,ioos:station:USF.COMPS:ARP:1,2016-03-01T01:12:00Z,28.4330,-82.6670,88.2,1111122 
COMPS,ioos:station:USF.COMPS:ARP:1,2016-03-01T01:18:00Z,28.4330,-82.6670,88.23,1111122 
COMPS,ioos:station:USF.COMPS:ARP:1,2016-03-01T01:24:00Z,28.4330,-82.6670,88.7,1111122 
COMPS,ioos:station:USF.COMPS:ARP:1,2016-03-01T01:30:00Z,28.4330,-82.6670,88.96,1111122 
COMPS,ioos:station:USF.COMPS:ARP:1,2016-03-01T01:36:00Z,28.4330,-82.6670,89.55,1111122 
COMPS,ioos:station:USF.COMPS:ARP:1,2016-03-01T01:42:00Z,28.4330,-82.6670,89.76,1111122 
COMPS,ioos:station:USF.COMPS:ARP:1,2016-03-01T01:48:00Z,28.4330,-82.6670,89.97,1111122 
COMPS,ioos:station:USF.COMPS:ARP:1,2016-03-01T01:54:00Z,28.4330,-82.6670,90.15,1111122 
COMPS,ioos:station:USF.COMPS:ARP:1,2016-03-01T02:00:00Z,28.4330,-82.6670,90.81,1111122 
COMPS,ioos:station:USF.COMPS:ARP:1,2016-03-01T02:06:00Z,28.4330,-82.6670,91.24,1111122 
COMPS,ioos:station:USF.COMPS:ARP:1,2016-03-01T02:12:00Z,28.4330,-82.6670,91.5,1111122 
COMPS,ioos:station:USF.COMPS:ARP:1,2016-03-01T02:18:00Z,28.4330,-82.6670,91.68,1111122 
COMPS,ioos:station:USF.COMPS:ARP:1,2016-03-01T02:24:00Z,28.4330,-82.6670,91.81,1111122 
COMPS,ioos:station:USF.COMPS:ARP:1,2016-03-01T02:30:00Z,28.4330,-82.6670,92.17,1111122 
COMPS,ioos:station:USF.COMPS:ARP:1,2016-03-01T02:36:00Z,28.4330,-82.6670,92.57,1111122 
COMPS,ioos:station:USF.COMPS:ARP:1,2016-03-01T02:42:00Z,28.4330,-82.6670,92.8,1111122 
COMPS,ioos:station:USF.COMPS:ARP:1,2016-03-01T02:48:00Z,28.4330,-82.6670,93.02,1111122 
COMPS,ioos:station:USF.COMPS:ARP:1,2016-03-01T02:54:00Z,28.4330,-82.6670,93.27,1111122 
COMPS,ioos:station:USF.COMPS:ARP:1,2016-03-01T03:00:00Z,28.4330,-82.6670,93.4,1111122 
COMPS,ioos:station:USF.COMPS:ARP:1,2016-03-01T03:06:00Z,28.4330,-82.6670,93.44,1111122 
COMPS,ioos:station:USF.COMPS:ARP:1,2016-03-01T03:12:00Z,28.4330,-82.6670,93.4,1111122 
COMPS,ioos:station:USF.COMPS:ARP:1,2016-03-01T03:18:00Z,28.4330,-82.6670,93.2,1111122 
COMPS,ioos:station:USF.COMPS:ARP:1,2016-03-01T03:24:00Z,28.4330,-82.6670,93.37,1111122 
COMPS,ioos:station:USF.COMPS:ARP:1,2016-03-01T03:30:00Z,28.4330,-82.6670,93.33,1111122 
COMPS,ioos:station:USF.COMPS:ARP:1,2016-03-01T03:36:00Z,28.4330,-82.6670,92.47,1111122 
COMPS,ioos:station:USF.COMPS:ARP:1,2016-03-01T03:42:00Z,28.4330,-82.6670,91.39,1111122 
COMPS,ioos:station:USF.COMPS:ARP:1,2016-03-01T03:48:00Z,28.4330,-82.6670,90.29,1111122 
COMPS,ioos:station:USF.COMPS:ARP:1,2016-03-01T03:54:00Z,28.4330,-82.6670,89.22,1111122 
COMPS,ioos:station:USF.COMPS:ARP:1,2016-03-01T04:00:00Z,28.4330,-82.6670,88.55,1111122 
COMPS,ioos:station:USF.COMPS:ARP:1,2016-03-01T04:06:00Z,28.4330,-82.6670,88.49,1111122 
COMPS,ioos:station:USF.COMPS:ARP:1,2016-03-01T04:12:00Z,28.4330,-82.6670,88.72,1111122 
COMPS,ioos:station:USF.COMPS:ARP:1,2016-03-01T04:18:00Z,28.4330,-82.6670,88.91,1111122 
COMPS,ioos:station:USF.COMPS:ARP:1,2016-03-01T04:24:00Z,28.4330,-82.6670,88.92,1111122 
COMPS,ioos:station:USF.COMPS:ARP:1,2016-03-01T04:30:00Z,28.4330,-82.6670,88.96,1111122 
COMPS,ioos:station:USF.COMPS:ARP:1,2016-03-01T04:36:00Z,28.4330,-82.6670,88.92,1111122 
COMPS,ioos:station:USF.COMPS:ARP:1,2016-03-01T04:42:00Z,28.4330,-82.6670,88.62,1111122 
COMPS,ioos:station:USF.COMPS:ARP:1,2016-03-01T04:48:00Z,28.4330,-82.6670,88.97,1111122 
COMPS,ioos:station:USF.COMPS:ARP:1,2016-03-01T04:54:00Z,28.4330,-82.6670,90.09,1111122 
COMPS,ioos:station:USF.COMPS:ARP:1,2016-03-01T05:00:00Z,28.4330,-82.6670,89.81,1111122 
COMPS,ioos:station:USF.COMPS:ARP:1,2016-03-01T05:06:00Z,28.4330,-82.6670,89.82,1111122 
COMPS,ioos:station:USF.COMPS:ARP:1,2016-03-01T05:12:00Z,28.4330,-82.6670,90.06,1111122 
COMPS,ioos:station:USF.COMPS:ARP:1,2016-03-01T05:18:00Z,28.4330,-82.6670,90.83,1111122 
COMPS,ioos:station:USF.COMPS:ARP:1,2016-03-01T05:24:00Z,28.4330,-82.6670,91.54,1111122 
COMPS,ioos:station:USF.COMPS:ARP:1,2016-03-01T05:30:00Z,28.4330,-82.6670,92.49,1111122 
COMPS,ioos:station:USF.COMPS:ARP:1,2016-03-01T05:36:00Z,28.4330,-82.6670,93.06,1111122 
COMPS,ioos:station:USF.COMPS:ARP:1,2016-03-01T05:42:00Z,28.4330,-82.6670,93.66,1111122 
COMPS,ioos:station:USF.COMPS:ARP:1,2016-03-01T05:48:00Z,28.4330,-82.6670,94.03,1111122 
COMPS,ioos:station:USF.COMPS:ARP:1,2016-03-01T05:54:00Z,28.4330,-82.6670,94.18,1111122 
COMPS,ioos:station:USF.COMPS:ARP:1,2016-03-01T06:00:00Z,28.4330,-82.6670,94.38,1111122 
COMPS,ioos:station:USF.COMPS:ARP:1,2016-03-01T06:06:00Z,28.4330,-82.6670,94.58,1111122 
COMPS,ioos:station:USF.COMPS:ARP:1,2016-03-01T06:12:00Z,28.4330,-82.6670,94.81,1111122 
COMPS,ioos:station:USF.COMPS:ARP:1,2016-03-01T06:18:00Z,28.4330,-82.6670,94.97,1111122 
COMPS,ioos:station:USF.COMPS:ARP:1,2016-03-01T06:24:00Z,28.4330,-82.6670,95.17,1111122 
COMPS,ioos:station:USF.COMPS:ARP:1,2016-03-01T06:30:00Z,28.4330,-82.6670,95.26,1111122 
COMPS,ioos:station:USF.COMPS:ARP:1,2016-03-01T06:36:00Z,28.4330,-82.6670,95.41,1111122 
COMPS,ioos:station:USF.COMPS:ARP:1,2016-03-01T06:42:00Z,28.4330,-82.6670,95.69,1111122 
COMPS,ioos:station:USF.COMPS:ARP:1,2016-03-01T06:48:00Z,28.4330,-82.6670,95.74,1111122 
COMPS,ioos:station:USF.COMPS:ARP:1,2016-03-01T06:54:00Z,28.4330,-82.6670,95.84,1111122 
COMPS,ioos:station:USF.COMPS:ARP:1,2016-03-01T07:00:00Z,28.4330,-82.6670,95.88,1111122 
COMPS,ioos:station:USF.COMPS:ARP:1,2016-03-01T07:06:00Z,28.4330,-82.6670,96.14,1111122 
COMPS,ioos:station:USF.COMPS:ARP:1,2016-03-01T07:12:00Z,28.4330,-82.6670,96.02,1111122 
COMPS,ioos:station:USF.COMPS:ARP:1,2016-03-01T07:18:00Z,28.4330,-82.6670,95.89,1111122 
COMPS,ioos:station:USF.COMPS:ARP:1,2016-03-01T07:24:00Z,28.4330,-82.6670,96.0,1111122 
COMPS,ioos:station:USF.COMPS:ARP:1,2016-03-01T07:30:00Z,28.4330,-82.6670,95.85,1111122 
COMPS,ioos:station:USF.COMPS:ARP:1,2016-03-01T07:36:00Z,28.4330,-82.6670,95.73,1111122 
COMPS,ioos:station:USF.COMPS:ARP:1,2016-03-01T07:42:00Z,28.4330,-82.6670,95.6,1111122 
COMPS,ioos:station:USF.COMPS:ARP:1,2016-03-01T07:48:00Z,28.4330,-82.6670,95.45,1111122 
COMPS,ioos:station:USF.COMPS:ARP:1,2016-03-01T07:54:00Z,28.4330,-82.6670,95.09,1111122 
COMPS,ioos:station:USF.COMPS:ARP:1,2016-03-01T08:00:00Z,28.4330,-82.6670,94.56,1111122 
COMPS,ioos:station:USF.COMPS:ARP:1,2016-03-01T08:06:00Z,28.4330,-82.6670,94.27,1111122 
COMPS,ioos:station:USF.COMPS:ARP:1,2016-03-01T08:12:00Z,28.4330,-82.6670,93.78,1111122 
COMPS,ioos:station:USF.COMPS:ARP:1,2016-03-01T08:18:00Z,28.4330,-82.6670,93.52,1111122 
COMPS,ioos:station:USF.COMPS:ARP:1,2016-03-01T08:24:00Z,28.4330,-82.6670,93.48,1111122 
COMPS,ioos:station:USF.COMPS:ARP:1,2016-03-01T08:30:00Z,28.4330,-82.6670,93.17,1111122 
COMPS,ioos:station:USF.COMPS:ARP:1,2016-03-01T08:36:00Z,28.4330,-82.6670,93.12,1111122 
COMPS,ioos:station:USF.COMPS:ARP:1,2016-03-01T08:42:00Z,28.4330,-82.6670,92.96,1111122 
COMPS,ioos:station:USF.COMPS:ARP:1,2016-03-01T08:48:00Z,28.4330,-82.6670,92.38,1111122 
COMPS,ioos:station:USF.COMPS:ARP:1,2016-03-01T08:54:00Z,28.4330,-82.6670,92.01,1111122 
COMPS,ioos:station:USF.COMPS:ARP:1,2016-03-01T09:00:00Z,28.4330,-82.6670,91.65,1111122 
COMPS,ioos:station:USF.COMPS:ARP:1,2016-03-01T09:06:00Z,28.4330,-82.6670,91.52,1111122 
COMPS,ioos:station:USF.COMPS:ARP:1,2016-03-01T09:12:00Z,28.4330,-82.6670,91.75,1111122 
COMPS,ioos:station:USF.COMPS:ARP:1,2016-03-01T09:18:00Z,28.4330,-82.6670,91.82,1111122 
COMPS,ioos:station:USF.COMPS:ARP:1,2016-03-01T09:24:00Z,28.4330,-82.6670,91.67,1111122 
COMPS,ioos:station:USF.COMPS:ARP:1,2016-03-01T09:30:00Z,28.4330,-82.6670,91.54,1111122 
COMPS,ioos:station:USF.COMPS:ARP:1,2016-03-01T09:36:00Z,28.4330,-82.6670,91.26,1111122 
COMPS,ioos:station:USF.COMPS:ARP:1,2016-03-01T09:42:00Z,28.4330,-82.6670,91.16,1111122 
COMPS,ioos:station:USF.COMPS:ARP:1,2016-03-01T09:48:00Z,28.4330,-82.6670,91.25,1111122 
COMPS,ioos:station:USF.COMPS:ARP:1,2016-03-01T09:54:00Z,28.4330,-82.6670,91.51,1111122 
COMPS,ioos:station:USF.COMPS:ARP:1,2016-03-01T10:00:00Z,28.4330,-82.6670,91.56,1111122 
COMPS,ioos:station:USF.COMPS:ARP:1,2016-03-01T10:06:00Z,28.4330,-82.6670,91.67,1111122 
COMPS,ioos:station:USF.COMPS:ARP:1,2016-03-01T10:12:00Z,28.4330,-82.6670,91.48,1111122 
COMPS,ioos:station:USF.COMPS:ARP:1,2016-03-01T10:18:00Z,28.4330,-82.6670,91.2,1111122 
COMPS,ioos:station:USF.COMPS:ARP:1,2016-03-01T10:24:00Z,28.4330,-82.6670,90.85,1111122 
COMPS,ioos:station:USF.COMPS:ARP:1,2016-03-01T10:30:00Z,28.4330,-82.6670,90.69,1111122 
COMPS,ioos:station:USF.COMPS:ARP:1,2016-03-01T10:36:00Z,28.4330,-82.6670,90.85,1111122 
COMPS,ioos:station:USF.COMPS:ARP:1,2016-03-01T10:42:00Z,28.4330,-82.6670,90.61,1111122 
COMPS,ioos:station:USF.COMPS:ARP:1,2016-03-01T10:48:00Z,28.4330,-82.6670,90.69,1111122 
COMPS,ioos:station:USF.COMPS:ARP:1,2016-03-01T10:54:00Z,28.4330,-82.6670,90.41,1111122 
COMPS,ioos:station:USF.COMPS:ARP:1,2016-03-01T11:00:00Z,28.4330,-82.6670,89.6,1111122 
COMPS,ioos:station:USF.COMPS:ARP:1,2016-03-01T11:06:00Z,28.4330,-82.6670,89.68,1111122 
COMPS,ioos:station:USF.COMPS:ARP:1,2016-03-01T11:12:00Z,28.4330,-82.6670,89.21,1111122 
COMPS,ioos:station:USF.COMPS:ARP:1,2016-03-01T11:18:00Z,28.4330,-82.6670,88.76,1111122 
COMPS,ioos:station:USF.COMPS:ARP:1,2016-03-01T11:24:00Z,28.4330,-82.6670,88.04,1111122 
COMPS,ioos:station:USF.COMPS:ARP:1,2016-03-01T11:30:00Z,28.4330,-82.6670,87.96,1111122 
COMPS,ioos:station:USF.COMPS:ARP:1,2016-03-01T11:36:00Z,28.4330,-82.6670,87.93,1111122 
COMPS,ioos:station:USF.COMPS:ARP:1,2016-03-01T11:42:00Z,28.4330,-82.6670,87.73,1111122 
COMPS,ioos:station:USF.COMPS:ARP:1,2016-03-01T11:48:00Z,28.4330,-82.6670,87.9,1111122 
COMPS,ioos:station:USF.COMPS:ARP:1,2016-03-01T11:54:00Z,28.4330,-82.6670,87.34,1111122 
COMPS,ioos:station:USF.COMPS:ARP:1,2016-03-01T12:00:00Z,28.4330,-82.6670,87.1,1111122 
COMPS,ioos:station:USF.COMPS:ARP:1,2016-03-01T12:06:00Z,28.4330,-82.6670,87.64,1111122 
COMPS,ioos:station:USF.COMPS:ARP:1,2016-03-01T12:12:00Z,28.4330,-82.6670,86.84,1111122 
COMPS,ioos:station:USF.COMPS:ARP:1,2016-03-01T12:18:00Z,28.4330,-82.6670,85.62,1111122 
COMPS,ioos:station:USF.COMPS:ARP:1,2016-03-01T12:24:00Z,28.4330,-82.6670,85.12,1111122 
COMPS,ioos:station:USF.COMPS:ARP:1,2016-03-01T12:30:00Z,28.4330,-82.6670,84.88,1111122 
COMPS,ioos:station:USF.COMPS:ARP:1,2016-03-01T12:36:00Z,28.4330,-82.6670,84.39,1111122 
COMPS,ioos:station:USF.COMPS:ARP:1,2016-03-01T12:42:00Z,28.4330,-82.6670,83.85,1111122 
COMPS,ioos:station:USF.COMPS:ARP:1,2016-03-01T12:48:00Z,28.4330,-82.6670,82.64,1111122 
COMPS,ioos:station:USF.COMPS:ARP:1,2016-03-01T12:54:00Z,28.4330,-82.6670,82.08,1111122 
COMPS,ioos:station:USF.COMPS:ARP:1,2016-03-01T13:00:00Z,28.4330,-82.6670,80.77,1111122 
COMPS,ioos:station:USF.COMPS:ARP:1,2016-03-01T13:06:00Z,28.4330,-82.6670,79.12,1111122 
COMPS,ioos:station:USF.COMPS:ARP:1,2016-03-01T13:12:00Z,28.4330,-82.6670,78.18,1111122 
COMPS,ioos:station:USF.COMPS:ARP:1,2016-03-01T13:18:00Z,28.4330,-82.6670,77.42,1111122 
COMPS,ioos:station:USF.COMPS:ARP:1,2016-03-01T13:24:00Z,28.4330,-82.6670,76.15,1111122 
COMPS,ioos:station:USF.COMPS:ARP:1,2016-03-01T13:30:00Z,28.4330,-82.6670,75.1,1111122 
COMPS,ioos:station:USF.COMPS:ARP:1,2016-03-01T13:36:00Z,28.4330,-82.6670,74.47,1111122 
COMPS,ioos:station:USF.COMPS:ARP:1,2016-03-01T13:42:00Z,28.4330,-82.6670,73.67,1111122 
COMPS,ioos:station:USF.COMPS:ARP:1,2016-03-01T13:48:00Z,28.4330,-82.6670,72.67,1111122 
COMPS,ioos:station:USF.COMPS:ARP:1,2016-03-01T13:54:00Z,28.4330,-82.6670,71.69,1111122 
COMPS,ioos:station:USF.COMPS:ARP:1,2016-03-01T14:00:00Z,28.4330,-82.6670,70.53,1111122 
COMPS,ioos:station:USF.COMPS:ARP:1,2016-03-01T14:06:00Z,28.4330,-82.6670,69.05,1111122 
COMPS,ioos:station:USF.COMPS:ARP:1,2016-03-01T14:12:00Z,28.4330,-82.6670,67.61,1111122 
COMPS,ioos:station:USF.COMPS:ARP:1,2016-03-01T14:18:00Z,28.4330,-82.6670,66.44,1111122 
COMPS,ioos:station:USF.COMPS:ARP:1,2016-03-01T14:24:00Z,28.4330,-82.6670,65.39,1111122 
COMPS,ioos:station:USF.COMPS:ARP:1,2016-03-01T14:30:00Z,28.4330,-82.6670,63.4,1111122 
COMPS,ioos:station:USF.COMPS:ARP:1,2016-03-01T14:36:00Z,28.4330,-82.6670,62.69,1111122 
COMPS,ioos:station:USF.COMPS:ARP:1,2016-03-01T14:42:00Z,28.4330,-82.6670,60.61,1111122 
COMPS,ioos:station:USF.COMPS:ARP:1,2016-03-01T14:48:00Z,28.4330,-82.6670,59.15,1111122 
COMPS,ioos:station:USF.COMPS:ARP:1,2016-03-01T14:54:00Z,28.4330,-82.6670,58.09,1111122 
COMPS,ioos:station:USF.COMPS:ARP:1,2016-03-01T15:00:00Z,28.4330,-82.6670,57.15,1111122 
COMPS,ioos:station:USF.COMPS:ARP:1,2016-03-01T15:06:00Z,28.4330,-82.6670,55.59,1111122 
COMPS,ioos:station:USF.COMPS:ARP:1,2016-03-01T15:12:00Z,28.4330,-82.6670,54.23,1111122 
COMPS,ioos:station:USF.COMPS:ARP:1,2016-03-01T15:18:00Z,28.4330,-82.6670,53.11,1111122 
COMPS,ioos:station:USF.COMPS:ARP:1,2016-03-01T15:24:00Z,28.4330,-82.6670,52.18,1111122 
COMPS,ioos:station:USF.COMPS:ARP:1,2016-03-01T15:30:00Z,28.4330,-82.6670,51.79,1111122 
COMPS,ioos:station:USF.COMPS:ARP:1,2016-03-01T15:36:00Z,28.4330,-82.6670,51.34,1111122 
COMPS,ioos:station:USF.COMPS:ARP:1,2016-03-01T15:42:00Z,28.4330,-82.6670,51.37,1111122 
COMPS,ioos:station:USF.COMPS:ARP:1,2016-03-01T15:48:00Z,28.4330,-82.6670,51.03,1111122 
COMPS,ioos:station:USF.COMPS:ARP:1,2016-03-01T15:54:00Z,28.4330,-82.6670,50.41,1111122 
COMPS,ioos:station:USF.COMPS:ARP:1,2016-03-01T16:00:00Z,28.4330,-82.6670,52.31,1111122 
COMPS,ioos:station:USF.COMPS:ARP:1,2016-03-01T16:06:00Z,28.4330,-82.6670,68.53,1111122 
COMPS,ioos:station:USF.COMPS:ARP:1,2016-03-01T16:12:00Z,28.4330,-82.6670,73.53,1111122 
COMPS,ioos:station:USF.COMPS:ARP:1,2016-03-01T16:18:00Z,28.4330,-82.6670,63.78,1111122 
COMPS,ioos:station:USF.COMPS:ARP:1,2016-03-01T16:24:00Z,28.4330,-82.6670,63.53,1111122 
COMPS,ioos:station:USF.COMPS:ARP:1,2016-03-01T16:30:00Z,28.4330,-82.6670,65.59,1111122 
COMPS,ioos:station:USF.COMPS:ARP:1,2016-03-01T16:36:00Z,28.4330,-82.6670,59.76,1111122 
COMPS,ioos:station:USF.COMPS:ARP:1,2016-03-01T16:42:00Z,28.4330,-82.6670,61.27,1111122 
COMPS,ioos:station:USF.COMPS:ARP:1,2016-03-01T16:48:00Z,28.4330,-82.6670,62.13,1111122 
COMPS,ioos:station:USF.COMPS:ARP:1,2016-03-01T16:54:00Z,28.4330,-82.6670,62.13,1111122 
COMPS,ioos:station:USF.COMPS:ARP:1,2016-03-01T17:00:00Z,28.4330,-82.6670,57.91,1111122 
COMPS,ioos:station:USF.COMPS:ARP:1,2016-03-01T17:06:00Z,28.4330,-82.6670,69.67,1111122 
COMPS,ioos:station:USF.COMPS:ARP:1,2016-03-01T17:12:00Z,28.4330,-82.6670,68.54,1111122 
COMPS,ioos:station:USF.COMPS:ARP:1,2016-03-01T17:18:00Z,28.4330,-82.6670,67.79,1111122 
COMPS,ioos:station:USF.COMPS:ARP:1,2016-03-01T17:24:00Z,28.4330,-82.6670,67.52,1111122 
COMPS,ioos:station:USF.COMPS:ARP:1,2016-03-01T17:30:00Z,28.4330,-82.6670,63.49,1111122 
COMPS,ioos:station:USF.COMPS:ARP:1,2016-03-01T17:36:00Z,28.4330,-82.6670,66.88,1111122 
COMPS,ioos:station:USF.COMPS:ARP:1,2016-03-01T17:42:00Z,28.4330,-82.6670,66.88,1111122 
COMPS,ioos:station:USF.COMPS:ARP:1,2016-03-01T17:48:00Z,28.4330,-82.6670,67.68,1111122 
COMPS,ioos:station:USF.COMPS:ARP:1,2016-03-01T17:54:00Z,28.4330,-82.6670,68.9,1111122 
COMPS,ioos:station:USF.COMPS:ARP:1,2016-03-01T18:00:00Z,28.4330,-82.6670,68.6,1111122 
COMPS,ioos:station:USF.COMPS:ARP:1,2016-03-01T18:06:00Z,28.4330,-82.6670,65.97,1111122 
COMPS,ioos:station:USF.COMPS:ARP:1,2016-03-01T18:12:00Z,28.4330,-82.6670,65.39,1111122 
COMPS,ioos:station:USF.COMPS:ARP:1,2016-03-01T18:18:00Z,28.4330,-82.6670,68.31,1111122 
COMPS,ioos:station:USF.COMPS:ARP:1,2016-03-01T18:24:00Z,28.4330,-82.6670,66.57,1111122 
COMPS,ioos:station:USF.COMPS:ARP:1,2016-03-01T18:30:00Z,28.4330,-82.6670,65.67,1111122 
COMPS,ioos:station:USF.COMPS:ARP:1,2016-03-01T18:36:00Z,28.4330,-82.6670,64.16,1111122 
COMPS,ioos:station:USF.COMPS:ARP:1,2016-03-01T18:42:00Z,28.4330,-82.6670,64.85,1111122 
COMPS,ioos:station:USF.COMPS:ARP:1,2016-03-01T18:48:00Z,28.4330,-82.6670,65.51,1111122 
COMPS,ioos:station:USF.COMPS:ARP:1,2016-03-01T18:54:00Z,28.4330,-82.6670,62.81,1111122 
COMPS,ioos:station:USF.COMPS:ARP:1,2016-03-01T19:00:00Z,28.4330,-82.6670,64.2,1111122 
COMPS,ioos:station:USF.COMPS:ARP:1,2016-03-01T19:06:00Z,28.4330,-82.6670,63.8,1111122 
COMPS,ioos:station:USF.COMPS:ARP:1,2016-03-01T19:12:00Z,28.4330,-82.6670,63.45,1111122 
COMPS,ioos:station:USF.COMPS:ARP:1,2016-03-01T19:18:00Z,28.4330,-82.6670,65.21,1111122 
COMPS,ioos:station:USF.COMPS:ARP:1,2016-03-01T19:24:00Z,28.4330,-82.6670,65.12,1111122 
COMPS,ioos:station:USF.COMPS:ARP:1,2016-03-01T19:30:00Z,28.4330,-82.6670,65.35,1111122 
COMPS,ioos:station:USF.COMPS:ARP:1,2016-03-01T19:36:00Z,28.4330,-82.6670,64.89,1111122 
COMPS,ioos:station:USF.COMPS:ARP:1,2016-03-01T19:42:00Z,28.4330,-82.6670,65.86,1111122 
COMPS,ioos:station:USF.COMPS:ARP:1,2016-03-01T19:48:00Z,28.4330,-82.6670,65.77,1111122 
COMPS,ioos:station:USF.COMPS:ARP:1,2016-03-01T19:54:00Z,28.4330,-82.6670,65.54,1111122 
COMPS,ioos:station:USF.COMPS:ARP:1,2016-03-01T20:12:00Z,28.4330,-82.6670,65.29,1111122 
COMPS,ioos:station:USF.COMPS:ARP:1,2016-03-01T20:18:00Z,28.4330,-82.6670,65.72,1111122 
COMPS,ioos:station:USF.COMPS:ARP:1,2016-03-01T20:24:00Z,28.4330,-82.6670,65.51,1111122 
COMPS,ioos:station:USF.COMPS:ARP:1,2016-03-01T20:30:00Z,28.4330,-82.6670,65.28,1111122 
COMPS,ioos:station:USF.COMPS:ARP:1,2016-03-01T20:36:00Z,28.4330,-82.6670,65.6,1111122 
COMPS,ioos:station:USF.COMPS:ARP:1,2016-03-01T20:42:00Z,28.4330,-82.6670,64.65,1111122 
COMPS,ioos:station:USF.COMPS:ARP:1,2016-03-01T20:48:00Z,28.4330,-82.6670,65.07,1111122 
COMPS,ioos:station:USF.COMPS:ARP:1,2016-03-01T20:54:00Z,28.4330,-82.6670,66.03,1111122 
COMPS,ioos:station:USF.COMPS:ARP:1,2016-03-02T03:00:00Z,28.4330,-82.6670,81.03,1111122 
COMPS,ioos:station:USF.COMPS:ARP:1,2016-03-02T03:06:00Z,28.4330,-82.6670,81.43,1111122 
COMPS,ioos:station:USF.COMPS:ARP:1,2016-03-02T03:12:00Z,28.4330,-82.6670,81.47,1111122 
COMPS,ioos:station:USF.COMPS:ARP:1,2016-03-02T03:18:00Z,28.4330,-82.6670,81.67,1111122 
COMPS,ioos:station:USF.COMPS:ARP:1,2016-03-02T03:24:00Z,28.4330,-82.6670,82.14,1111122 
COMPS,ioos:station:USF.COMPS:ARP:1,2016-03-02T03:30:00Z,28.4330,-82.6670,82.82,1111122 
COMPS,ioos:station:USF.COMPS:ARP:1,2016-03-02T03:36:00Z,28.4330,-82.6670,83.09,1111122 
COMPS,ioos:station:USF.COMPS:ARP:1,2016-03-02T03:42:00Z,28.4330,-82.6670,83.62,1111122 
COMPS,ioos:station:USF.COMPS:ARP:1,2016-03-02T03:48:00Z,28.4330,-82.6670,84.29,1111122 
COMPS,ioos:station:USF.COMPS:ARP:1,2016-03-02T03:54:00Z,28.4330,-82.6670,84.8,1111122 
COMPS,ioos:station:USF.COMPS:ARP:1,2016-03-02T04:00:00Z,28.4330,-82.6670,85.3,1111122 
COMPS,ioos:station:USF.COMPS:ARP:1,2016-03-02T04:06:00Z,28.4330,-82.6670,85.07,1111122 
COMPS,ioos:station:USF.COMPS:ARP:1,2016-03-02T04:12:00Z,28.4330,-82.6670,84.55,1111122 
COMPS,ioos:station:USF.COMPS:ARP:1,2016-03-02T04:18:00Z,28.4330,-82.6670,84.42,1111122 
COMPS,ioos:station:USF.COMPS:ARP:1,2016-03-02T04:24:00Z,28.4330,-82.6670,84.1,1111122 
COMPS,ioos:station:USF.COMPS:ARP:1,2016-03-02T04:30:00Z,28.4330,-82.6670,84.06,1111122 
COMPS,ioos:station:USF.COMPS:ARP:1,2016-03-02T04:36:00Z,28.4330,-82.6670,83.86,1111122 
COMPS,ioos:station:USF.COMPS:ARP:1,2016-03-02T04:42:00Z,28.4330,-82.6670,84.18,1111122 
COMPS,ioos:station:USF.COMPS:ARP:1,2016-03-02T04:48:00Z,28.4330,-82.6670,85.11,1111122 
COMPS,ioos:station:USF.COMPS:ARP:1,2016-03-02T04:54:00Z,28.4330,-82.6670,85.59,1111122 
COMPS,ioos:station:USF.COMPS:ARP:1,2016-03-02T05:00:00Z,28.4330,-82.6670,86.18,1111122 
COMPS,ioos:station:USF.COMPS:ARP:1,2016-03-02T05:06:00Z,28.4330,-82.6670,86.79,1111122 
COMPS,ioos:station:USF.COMPS:ARP:1,2016-03-02T05:12:00Z,28.4330,-82.6670,87.22,1111122 
COMPS,ioos:station:USF.COMPS:ARP:1,2016-03-02T05:18:00Z,28.4330,-82.6670,87.58,1111122 
COMPS,ioos:station:USF.COMPS:ARP:1,2016-03-02T05:24:00Z,28.4330,-82.6670,88.43,1111122 
COMPS,ioos:station:USF.COMPS:ARP:1,2016-03-02T05:30:00Z,28.4330,-82.6670,89.24,1111122 
COMPS,ioos:station:USF.COMPS:ARP:1,2016-03-02T05:36:00Z,28.4330,-82.6670,89.6,1111122 
COMPS,ioos:station:USF.COMPS:ARP:1,2016-03-02T05:42:00Z,28.4330,-82.6670,89.95,1111122 
COMPS,ioos:station:USF.COMPS:ARP:1,2016-03-02T05:48:00Z,28.4330,-82.6670,90.23,1111122 
COMPS,ioos:station:USF.COMPS:ARP:1,2016-03-02T05:54:00Z,28.4330,-82.6670,90.64,1111122 
COMPS,ioos:station:USF.COMPS:ARP:1,2016-03-02T06:00:00Z,28.4330,-82.6670,90.62,1111122 
COMPS,ioos:station:USF.COMPS:ARP:1,2016-03-02T06:06:00Z,28.4330,-82.6670,90.51,1111122 
COMPS,ioos:station:USF.COMPS:ARP:1,2016-03-02T06:12:00Z,28.4330,-82.6670,90.49,1111122 
COMPS,ioos:station:USF.COMPS:ARP:1,2016-03-02T06:18:00Z,28.4330,-82.6670,90.71,1111122 
COMPS,ioos:station:USF.COMPS:ARP:1,2016-03-02T06:24:00Z,28.4330,-82.6670,91.04,1111122 
COMPS,ioos:station:USF.COMPS:ARP:1,2016-03-02T06:30:00Z,28.4330,-82.6670,91.2,1111122 
COMPS,ioos:station:USF.COMPS:ARP:1,2016-03-02T06:36:00Z,28.4330,-82.6670,91.53,1111122 
COMPS,ioos:station:USF.COMPS:ARP:1,2016-03-02T06:42:00Z,28.4330,-82.6670,91.63,1111122 
COMPS,ioos:station:USF.COMPS:ARP:1,2016-03-02T06:48:00Z,28.4330,-82.6670,91.6,1111122 
COMPS,ioos:station:USF.COMPS:ARP:1,2016-03-02T06:54:00Z,28.4330,-82.6670,91.73,1111122 
COMPS,ioos:station:USF.COMPS:ARP:1,2016-03-02T07:00:00Z,28.4330,-82.6670,91.82,1111122 
COMPS,ioos:station:USF.COMPS:ARP:1,2016-03-02T07:06:00Z,28.4330,-82.6670,91.79,1111122 
COMPS,ioos:station:USF.COMPS:ARP:1,2016-03-02T07:12:00Z,28.4330,-82.6670,91.9,1111122 
COMPS,ioos:station:USF.COMPS:ARP:1,2016-03-02T07:18:00Z,28.4330,-82.6670,91.79,1111122 
COMPS,ioos:station:USF.COMPS:ARP:1,2016-03-02T07:24:00Z,28.4330,-82.6670,91.82,1111122 
COMPS,ioos:station:USF.COMPS:ARP:1,2016-03-02T07:30:00Z,28.4330,-82.6670,91.8,1111122 
COMPS,ioos:station:USF.COMPS:ARP:1,2016-03-02T07:36:00Z,28.4330,-82.6670,91.78,1111122 
COMPS,ioos:station:USF.COMPS:ARP:1,2016-03-02T07:42:00Z,28.4330,-82.6670,91.86,1111122 
COMPS,ioos:station:USF.COMPS:ARP:1,2016-03-02T07:48:00Z,28.4330,-82.6670,91.9,1111122 
COMPS,ioos:station:USF.COMPS:ARP:1,2016-03-02T07:54:00Z,28.4330,-82.6670,92.1,1111122 
COMPS,ioos:station:USF.COMPS:ARP:1,2016-03-02T08:00:00Z,28.4330,-82.6670,92.35,1111122 
COMPS,ioos:station:USF.COMPS:ARP:1,2016-03-02T08:06:00Z,28.4330,-82.6670,92.55,1111122 
COMPS,ioos:station:USF.COMPS:ARP:1,2016-03-02T08:12:00Z,28.4330,-82.6670,92.66,1111122 
COMPS,ioos:station:USF.COMPS:ARP:1,2016-03-02T08:18:00Z,28.4330,-82.6670,92.55,1111122 
COMPS,ioos:station:USF.COMPS:ARP:1,2016-03-02T08:24:00Z,28.4330,-82.6670,92.43,1111122 
COMPS,ioos:station:USF.COMPS:ARP:1,2016-03-02T08:30:00Z,28.4330,-82.6670,92.12,1111122 
COMPS,ioos:station:USF.COMPS:ARP:1,2016-03-02T08:36:00Z,28.4330,-82.6670,91.66,1111122 
COMPS,ioos:station:USF.COMPS:ARP:1,2016-03-02T08:42:00Z,28.4330,-82.6670,91.17,1111122 
COMPS,ioos:station:USF.COMPS:ARP:1,2016-03-02T08:48:00Z,28.4330,-82.6670,90.66,1111122 
COMPS,ioos:station:USF.COMPS:ARP:1,2016-03-02T08:54:00Z,28.4330,-82.6670,90.72,1111122 
COMPS,ioos:station:USF.COMPS:ARP:1,2016-03-02T09:00:00Z,28.4330,-82.6670,90.6,1111122 
COMPS,ioos:station:USF.COMPS:ARP:1,2016-03-02T09:06:00Z,28.4330,-82.6670,90.23,1111122 
COMPS,ioos:station:USF.COMPS:ARP:1,2016-03-02T09:12:00Z,28.4330,-82.6670,89.79,1111122 
COMPS,ioos:station:USF.COMPS:ARP:1,2016-03-02T09:18:00Z,28.4330,-82.6670,89.6,1111122 